Zurück zum Katalog

PETREL

AktivWissenschaftSSO
NORAD 69503·PAYLOAD·🇯🇵 Japan

Gestartet Jun 12, 2026 von Tanegashima Space Center

Loading…

Nächste Überflüge (nächste 24 Stunden)

TLE

AktuellSource: Space-Track

Epoche: Sep 14, 2026, 02:56 UTC

1 69503U 26132B   26257.12283277  .00001695  00000-0  14342-3 0  9999
2 69503  97.6847 319.6463 0011063 339.6467  20.4314 14.99320214 14102

Verfolge PETREL in Echtzeit mit AllMySat

Download on the App Store